Wind_Speed
34 38 42 35 24 16 9 10 12 14 14 12 11 13 16 18 20 19 23 23 24 25 25 24 23 23 24 24 28 29 31 30
25 38 33 19 14 17 15 13 10 8 9 9 13 17 21 19 21 22 25 24 24 25 23 22 24 21 25 32 32 34 38 38
20 15 11 8 7 8 11 11 7 8 9 14 18 18 18 20 24 26 25 24 18 16 24 22 25 25 25 25 31 34 38 40
7 9 11 10 9 9 9 9 11 13 15 15 17 18 20 24 24 24 25 26 24 19 28 33 33 37 37 33 32 33 37 41
19 18 14 10 10 8 8 9 10 10 11 15 20 21 24 24 26 23 18 17 22 28 33 31 29 32 35 36 40 41 39 40
14 12 10 9 7 5 4 6 8 11 14 15 18 24 30 24 16 18 15 26 27 34 34 32 33 36 37 40 41 42 40 40
12 11 8 4 3 1 4 7 9 12 12 16 15 17 18 21 23 26 24 24 23 31 36 39 40 39 38 38 39 41 40 39
5 4 4 3 2 5 7 9 10 13 16 20 20 23 28 29 30 28 28 27 31 38 38 36 37 38 38 38 39 39 39 39
2 1 2 4 6 9 8 12 16 18 21 25 27 28 28 28 29 30 29 33 34 35 37 37 38 38 38 40 40 39 41 42
1 4 5 6 9 10 13 18 20 23 25 26 27 27 28 31 31 28 31 31 33 36 37 38 39 39 39 40 40 40 43 45
3 7 7 9 11 16 21 24 26 27 24 24 25 25 26 28 29 30 31 34 36 38 40 41 42 42 42 42 41 43 45 46
10 13 15 17 18 19 20 22 22 21 22 22 24 25 26 29 32 34 36 38 41 42 45 47 47 47 47 45 44 45 47 48
12 16 17 20 18 18 20 19 19 21 25 26 29 31 33 36 38 39 40 42 45 48 48 49 50 49 48 46 45 44 45 48
16 20 22 18 17 14 15 17 21 24 27 29 33 36 38 41 43 44 45 48 50 51 51 51 53 53 52 49 46 46 50 54
18 20 19 14 14 15 19 21 24 27 30 32 36 39 42 45 47 47 49 50 52 53 53 54 55 55 54 53 54 56 58 61
20 15 12 13 16 19 23 25 28 31 35 37 41 44 46 48 49 49 50 52 54 54 54 55 57 55 55 58 62 66 71 73
12 13 14 18 20 24 28 31 34 37 40 43 45 49 51 52 53 51 51 52 53 54 54 57 56 57 60 64 69 74 78 81
15 17 19 24 27 30 34 37 42 45 48 50 53 55 56 57 58 58 58 59 61 62 62 61 60 63 67 70 76 80 83 88
18 21 23 28 33 35 39 43 46 49 52 54 55 56 57 58 60 59 62 62 63 64 64 63 64 68 72 76 80 84 88 92
25 27 28 31 36 39 42 46 49 52 55 55 57 57 58 59 59 59 63 65 65 65 64 64 67 72 76 79 82 87 91 95
Wind_Direction
268 251 217 201 203 199 186 200 198 195 201 219 248 269 275 279 284 305 307 312 318 312 312 316 310 307 307 307 311 313 317 318
238 206 186 178 193 190 170 185 186 200 224 253 269 267 266 290 298 304 307 311 312 318 318 314 312 317 311 307 301 306 303 311
207 203 214 181 151 162 162 152 190 196 234 243 256 270 286 299 301 303 308 302 309 324 342 331 328 327 317 309 309 307 304 301
171 128 111 105 118 134 146 172 206 220 239 260 278 293 301 298 303 309 311 306 292 297 312 317 317 312 314 306 302 299 301 302
87 105 114 138 148 152 186 217 241 266 286 294 304 307 301 309 310 308 307 315 308 319 316 317 309 306 301 303 303 304 301 298
103 116 126 143 164 186 235 266 289 301 308 307 310 309 312 306 320 328 300 317 319 311 310 311 305 305 300 299 296 296 296 293
145 150 153 166 235 280 272 276 286 297 295 321 313 323 323 300 302 318 311 312 308 312 312 311 307 307 303 298 296 295 294 291
147 135 140 155 234 277 297 291 307 306 310 313 312 309 310 315 305 315 315 316 316 313 312 310 309 306 304 302 300 298 292 290
132 125 241 271 284 293 298 301 311 307 313 310 317 310 313 309 308 311 317 316 314 311 310 311 308 305 303 298 296 292 289 287
30 262 279 296 291 307 309 308 311 314 313 308 309 305 308 310 309 315 315 315 312 314 315 312 309 307 298 293 289 288 286 283
255 278 306 293 294 316 314 313 312 309 309 308 302 310 315 314 313 315 313 312 313 314 314 313 313 312 308 301 297 292 289 288
305 314 308 305 310 310 309 308 305 306 307 312 315 316 316 314 316 314 313 314 315 315 315 318 316 312 309 305 300 295 294 294
312 306 303 304 306 304 306 302 309 317 317 317 318 314 314 316 316 315 314 314 314 316 316 314 310 307 305 304 301 299 298 297
303 297 305 309 308 308 308 313 313 313 315 317 312 312 314 315 314 314 314 314 313 314 312 311 309 307 304 300 297 301 303 302
302 301 301 303 314 312 304 306 312 312 312 310 308 310 312 312 312 313 313 312 311 311 310 308 308 306 305 303 301 301 299 300
306 302 303 307 301 296 301 307 309 310 307 308 309 309 307 307 310 311 311 312 309 308 307 306 306 303 304 306 305 304 302 301
294 292 298 296 297 301 304 309 307 306 306 303 301 302 305 308 310 310 307 305 304 305 305 305 304 304 307 307 307 308 308 307
295 297 302 302 304 305 307 306 306 306 306 306 306 307 309 309 308 306 306 307 308 309 309 309 308 309 309 310 311 310 311 311
294 298 301 300 305 306 306 306 306 306 306 306 307 309 308 307 307 308 310 310 308 309 309 308 309 309 311 311 311 312 313 313
296 298 300 302 303 306 306 305 305 304 305 306 307 309 308 309 308 306 309 309 308 308 308 309 309 311 312 311 312 313 312 311
Height
5801 5804 5808 5809 5814 5817 5821 5827 5828 5829 5832 5835 5836 5837 5837 5836 5835 5834 5834 5831 5830 5828 5826 5824 5822 5821 5820 5819 5816 5812 5812 5810
5804 5803 5801 5805 5810 5814 5819 5824 5826 5830 5833 5834 5834 5835 5834 5833 5834 5831 5828 5828 5827 5824 5821 5819 5818 5817 5814 5812 5810 5808 5805 5804
5807 5802 5803 5807 5811 5812 5816 5821 5826 5829 5832 5832 5830 5830 5831 5830 5828 5826 5825 5824 5822 5820 5819 5816 5814 5812 5811 5807 5803 5799 5797 5796
5801 5800 5804 5810 5813 5816 5819 5822 5825 5826 5827 5828 5829 5828 5827 5826 5822 5822 5821 5819 5817 5815 5813 5811 5809 5806 5804 5801 5798 5795 5791 5786
5801 5804 5806 5811 5813 5816 5819 5822 5823 5825 5826 5827 5826 5825 5824 5821 5818 5816 5815 5813 5813 5813 5809 5805 5804 5800 5797 5792 5788 5784 5782 5779
5802 5804 5807 5812 5814 5817 5819 5821 5820 5822 5824 5824 5822 5820 5819 5816 5814 5812 5810 5809 5807 5805 5802 5798 5795 5792 5788 5785 5781 5778 5774 5770
5804 5805 5809 5813 5813 5815 5817 5817 5818 5817 5818 5818 5815 5814 5810 5810 5806 5805 5803 5801 5799 5797 5794 5790 5786 5782 5778 5775 5771 5769 5765 5761
5804 5807 5809 5810 5812 5814 5815 5815 5814 5814 5812 5810 5808 5807 5805 5802 5799 5797 5795 5793 5791 5788 5784 5781 5778 5774 5770 5766 5763 5761 5757 5754
5805 5807 5808 5809 5810 5810 5810 5810 5810 5807 5805 5803 5802 5801 5800 5797 5794 5792 5789 5787 5784 5781 5776 5772 5769 5765 5761 5757 5755 5752 5750 5746
5803 5805 5806 5807 5807 5806 5805 5804 5802 5801 5800 5798 5796 5795 5792 5789 5788 5785 5784 5780 5777 5772 5768 5764 5760 5757 5754 5750 5747 5744 5741 5737
5803 5803 5803 5803 5802 5799 5798 5797 5795 5795 5793 5792 5791 5788 5786 5784 5781 5778 5777 5773 5769 5765 5761 5756 5752 5747 5744 5740 5736 5733 5729 5725
5798 5798 5797 5796 5795 5796 5795 5794 5793 5791 5788 5785 5784 5782 5781 5779 5774 5771 5768 5763 5758 5754 5750 5743 5739 5736 5732 5728 5724 5720 5716 5712
5793 5793 5794 5794 5794 5793 5790 5790 5788 5785 5782 5782 5778 5776 5775 5771 5767 5762 5758 5753 5748 5743 5738 5733 5729 5724 5721 5717 5712 5708 5705 5700
5792 5792 5791 5789 5789 5788 5787 5785 5784 5781 5779 5775 5772 5770 5766 5762 5758 5754 5748 5742 5737 5733 5728 5722 5717 5711 5708 5704 5701 5699 5692 5686
5790 5788 5787 5786 5784 5783 5782 5781 5778 5775 5773 5770 5767 5762 5758 5753 5749 5744 5739 5733 5726 5721 5715 5710 5705 5699 5692 5688 5684 5681 5677 5674
5785 5785 5783 5781 5781 5780 5777 5775 5773 5770 5767 5764 5758 5753 5750 5746 5740 5734 5728 5721 5715 5710 5704 5698 5691 5686 5679 5672 5667 5662 5656 5654
5782 5780 5780 5779 5778 5775 5771 5769 5767 5765 5761 5757 5754 5748 5742 5736 5729 5724 5718 5712 5705 5698 5692 5685 5677 5671 5664 5658 5650 5643 5634 5627
5777 5777 5776 5772 5771 5768 5765 5762 5758 5754 5749 5743 5737 5731 5726 5720 5715 5709 5703 5695 5688 5681 5674 5667 5660 5653 5646 5639 5630 5621 5612 5601
5774 5774 5772 5769 5764 5762 5758 5753 5749 5743 5737 5732 5726 5720 5715 5709 5701 5694 5687 5681 5674 5667 5659 5652 5645 5637 5630 5622 5611 5601 5590 5578
5770 5768 5766 5762 5758 5754 5749 5744 5738 5732 5726 5721 5715 5709 5701 5695 5688 5682 5676 5668 5661 5654 5647 5639 5631 5622 5613 5603 5594 5582 5569 5556